CAPE
341 323 40 51 94 287 129 207 340 449 278 347 485 806 492 559 583 43 782 797 930 1647 1755 2150 2762 2844 2159 1868 1809 1831 1853 1908 1838 1749 1560 1659 1685 1665 1817 1815 1536 1273 1223 1091 1210 1481 1715 2042 1701
47 446 50 63 140 52 206 248 325 463 571 400 403 482 268 268 323 830 936 940 1331 1711 1615 1783 2683 2817 2353 2212 2013 1898 1566 1472 1461 1748 1687 1573 1568 1790 1828 1733 1508 1560 1445 1207 1228 1533 1524 1644 1400
559 536 128 88 119 94 193 248 311 466 519 475 488 339 147 438 801 716 904 1003 1095 1311 1459 1743 2612 2605 1927 1828 2227 2073 1547 1424 1631 1616 1446 1370 1619 1599 1812 1765 1693 1184 1036 937 997 1073 1239 1235 1012
1726 719 717 336 237 290 222 226 298 315 361 360 191 125 190 307 456 471 748 651 709 1048 1319 2270 2161 1929 2028 1832 1548 1520 1358 1653 1654 1526 1579 1631 1914 1728 1845 1672 1640 1714 1448 1353 1313 1225 1159 1153 1152
666 106 293 367 378 95 126 159 176 292 238 200 126 140 290 545 403 545 495 590 686 947 1337 1640 2412 2511 2126 1892 1772 1671 1705 1719 1532 1504 1732 1518 1892 1459 1428 1702 1578 1582 1451 1361 1272 1261 1311 1370 1464
432 451 403 188 97 43 96 141 190 214 141 226 216 197 198 443 460 440 408 474 539 991 1280 1481 2038 2129 1866 1807 1828 1705 1556 1479 1476 1375 1757 1649 1656 1618 1832 1866 1685 1580 1510 1534 1451 1333 1288 1352 1683
57 31 164 372 115 74 33 117 127 125 177 187 143 111 139 429 366 370 306 474 527 1001 1109 1203 1370 1087 1921 1507 1649 1643 1451 1582 1484 1672 1892 1975 1569 1987 1801 1570 1460 1364 1409 1474 1413 1392 1583 1809 1174
57 86 184 366 168 92 103 44 88 102 112 109 109 76 20 182 413 474 540 435 544 680 730 1115 957 1048 1272 1235 1805 1906 1711 1695 1728 1843 1146 1472 1785 1943 1732 2014 1997 1200 1187 1258 1335 1501 1754 841 868
185 116 163 370 171 64 63 27 42 47 114 61 85 0 0 36 460 508 428 308 270 293 389 750 626 896 877 1066 1265 2170 1649 1622 1634 1616 971 1563 1586 1388 1311 1458 1554 1397 1395 1478 1481 1658 1469 725 496
231 154 320 428 91 52 37 60 114 35 46 59 13 0 0 0 358 363 362 135 80 95 198 318 366 427 753 944 926 1076 915 1101 1792 1103 608 1580 1531 1256 1068 1389 1606 1706 1705 1745 1946 2442 1732 461 75
250 167 452 447 80 47 62 57 35 0 7 0 0 0 0 0 86 268 317 20 66 31 127 206 295 254 319 495 1034 886 1195 1243 1481 978 516 1282 1263 979 1160 1063 1439 1819 2006 1445 1811 2126 1448 620 1
464 282 314 509 335 46 22 80 84 0 0 0 0 0 0 0 0 0 45 18 0 0 133 123 141 159 317 311 821 763 964 864 700 834 530 498 850 818 788 900 1309 1353 1000 1110 760 1329 937 189 9
420 570 249 67 130 99 197 251 88 18 2 0 0 0 0 0 0 0 0 0 0 5 59 48 22 78 271 240 98 266 409 530 127 261 403 447 578 639 785 800 1091 759 789 634 686 828 641 201 44
335 109 113 87 88 225 272 387 144 37 3 0 0 0 0 0 0 0 0 0 0 2 32 6 22 55 177 129 27 245 319 413 263 107 281 456 570 822 914 813 949 692 855 996 643 688 393 383 198
90 35 69 50 119 170 142 112 277 106 57 39 0 0 0 0 0 0 0 0 0 0 0 0 0 4 94 157 0 245 393 358 285 89 379 498 557 571 580 241 355 279 607 803 756 791 698 510 344
7 1 30 51 88 164 141 34 149 119 46 148 51 81 0 0 0 0 0 0 0 0 0 0 34 25 82 217 0 53 220 371 224 80 132 107 482 549 502 533 718 930 1028 784 744 542 617 536 430
4 19 30 45 31 110 100 259 254 193 242 324 134 120 110 0 0 0 0 0 0 0 0 0 95 186 194 161 86 143 114 104 218 51 181 0 309 279 736 639 683 965 1190 764 655 504 497 217 335
79 49 68 87 95 111 196 241 65 70 234 150 358 233 124 29 0 3 12 11 21 54 0 49 0 92 143 55 33 41 107 46 2 141 241 85 96 181 557 1189 1424 1358 1122 842 638 768 425 100 177
117 87 142 190 133 142 131 184 124 100 88 23 266 355 158 226 13 33 69 99 137 150 13 33 0 0 40 40 37 37 0 0 0 0 257 214 0 187 498 924 1212 1094 826 876 754 625 366 247 108
126 103 130 89 190 197 178 160 402 234 89 167 159 406 382 253 195 148 118 167 241 280 190 52 56 3 25 57 59 34 0 0 15 2 55 199 225 320 915 1055 1109 989 1005 741 851 706 479 410 204
198 113 18 6 207 208 85 28 351 345 224 138 287 355 488 478 374 425 398 281 345 334 317 313 152 143 46 72 61 31 22 0 0 0 52 371 429 581 1001 1373 1408 1031 952 618 270 262 412 315 194
165 38 54 185 257 62 135 14 192 321 356 264 316 484 542 563 552 420 529 552 485 430 383 355 418 358 376 173 76 71 11 4 0 0 106 644 888 849 1109 1413 1171 855 597 369 68 428 342 263 146
11 24 21 26 8 0 65 1 3 71 216 134 208 269 557 660 723 618 694 624 550 513 462 411 460 450 487 549 134 9 0 0 70 612 1135 1330 1628 1544 1321 1112 871 779 591 225 150 574 558 349 141
6 0 21 47 14 2 0 44 0 27 37 92 195 369 449 557 708 699 744 729 634 583 695 532 560 568 501 422 468 64 31 13 552 1011 1419 1380 1202 1105 974 926 602 412 349 461 501 548 376 278 131
14 0 14 3 2 3 18 102 9 67 0 8 0 10 247 531 649 748 836 797 772 859 769 577 586 571 665 519 489 243 106 205 476 612 696 848 578 560 617 685 736 610 653 448 414 471 399 430 352
23 15 0 0 0 0 44 11 1 26 0 0 0 63 330 689 825 837 852 817 863 990 878 837 742 628 632 534 496 526 226 284 391 379 399 566 451 370 304 273 252 212 214 231 204 207 192 299 248
0 0 0 0 0 0 0 0 0 0 0 0 0 148 278 904 869 875 874 864 877 1055 1114 931 845 721 772 454 433 881 538 355 374 289 324 386 321 234 196 99 100 83 90 10 24 53 57 57 58
0 0 0 0 0 0 0 0 0 0 0 0 10 280 446 620 948 898 961 957 973 990 1014 1027 1016 1041 770 948 1319 1342 1011 609 452 260 83 248 276 210 161 87 69 71 68 52 42 36 56 67 71
0 1 0 0 0 0 0 0 0 0 0 0 6 449 624 800 1340 1491 1575 1561 1430 1355 1440 1447 1441 1300 1379 1174 896 889 712 556 452 333 179 368 396 29 25 35 55 44 32 18 22 36 65 46 19
0 0 0 0 0 0 0 0 0 0 0 0 336 674 802 938 1002 1028 1091 1342 1547 1502 1538 1511 1195 1067 1384 1409 1336 1386 1010 639 555 383 49 304 69 33 10 57 77 73 0 0 3 6 18 33 28
CIN
-246 -119 -441 -460 -136 -123 -68 -20 -29 -44 -19 -18 -106 -111 -59 -72 -87 -153 -150 -120 -100 -17 -2 -0 -0 -0 -0 -0 -0 -0 -0 -0 -0 -0 -0 -0 -0 -0 -0 -0 -0 -0 -0 -0 -1 -1 -0 -0 -0
-147 -94 -319 -57 -48 -32 -49 -32 -31 -32 -36 -31 -120 -145 -37 -34 -141 -189 -130 -117 -62 -18 -8 -3 -0 -0 -0 -0 -0 -0 -7 -0 -0 -0 -0 -0 -0 -0 -0 -0 -0 -0 -0 -0 -2 -0 -0 -0 -0
-179 -261 -176 -87 -107 -47 -31 -45 -73 -46 -19 -116 -137 -168 -203 -250 -211 -200 -156 -102 -71 -43 -19 -2 -0 -0 -0 -0 -0 -0 -0 -0 -0 -0 -0 -0 -0 -0 -0 -0 -0 -0 -0 -0 -0 -0 -0 -0 -6
-85 -252 -225 -135 -110 -75 -35 -25 -21 -47 -41 -32 -180 -230 -228 -207 -203 -222 -186 -160 -115 -61 -25 -0 -0 -0 -0 -0 -0 -0 -0 -0 -0 -0 -0 -0 -0 -0 -0 -0 -0 -0 -0 -0 -0 -0 -5 -2 -5
-138 -321 -152 -111 -85 -25 -36 -31 -15 -33 -73 -103 -89 -199 -231 -166 -194 -182 -188 -140 -135 -63 -15 -0 -0 -0 -0 -0 -0 -0 -0 -0 -0 -0 -0 -0 -0 -0 -0 -0 -0 -0 -0 -0 -9 -11 -10 -7 -12
-62 -193 -71 -76 -18 -6 -24 -28 -53 -26 -105 -160 -172 -199 -209 -205 -186 -177 -143 -152 -140 -98 -27 -5 -0 -0 -0 -0 -0 -0 -0 -0 -0 -0 -0 -0 -0 -0 -0 -0 -0 -0 -1 -9 -17 -13 -9 -11 -4
-12 -43 -80 -53 -12 -52 -38 -16 -56 -58 -124 -126 -131 -133 -165 -144 -124 -57 -105 -155 -131 -62 -33 -13 -3 -3 -0 -0 -0 -0 -0 -0 -0 -0 -0 -0 -0 -0 -0 -4 -17 -19 -28 -38 -27 -17 -5 -1 -38
-45 -228 -162 -88 -44 -5 -6 -10 -84 -65 -76 -36 -22 -34 -233 -153 -89 -96 -95 -129 -103 -82 -67 -34 -46 -12 -0 -1 -0 -0 -0 -0 -0 -0 -2 -0 -0 -0 -0 -2 -11 -48 -52 -52 -24 -5 -0 -60 -88
-220 -168 -103 -90 -30 -33 -6 -12 -47 -96 -143 -70 -65 -0 -0 -226 -114 -89 -86 -99 -108 -98 -75 -59 -77 -35 -15 -3 -0 -0 -0 -0 -0 -1 -19 -1 -3 -18 -31 -46 -49 -57 -60 -53 -11 -3 -35 -86 -116
-202 -240 -202 -93 -75 -43 -5 -6 -6 -117 -124 -80 -46 -0 -0 -0 -89 -86 -52 -118 -195 -219 -153 -113 -97 -97 -49 -21 -28 -17 -28 -24 -0 -28 -49 -5 -16 -41 -60 -55 -56 -54 -59 -57 -20 -4 -36 -71 -81
-198 -159 -93 -74 -78 -117 -28 -7 -53 -0 -45 -0 -0 -0 -0 -0 -190 -85 -77 -180 -241 -297 -223 -179 -134 -133 -113 -76 -36 -49 -25 -12 -6 -46 -75 -31 -36 -59 -51 -63 -65 -60 -69 -101 -28 -6 -57 -50 -7
-113 -136 -54 -54 -44 -89 -42 -59 -72 -0 -0 -0 -0 -0 -0 -0 -0 -0 -132 -169 -0 -0 -193 -198 -173 -162 -118 -112 -68 -71 -57 -65 -65 -52 -91 -94 -63 -65 -72 -79 -83 -98 -118 -111 -117 -75 -82 -123 -335
-155 -135 -36 -28 -17 -33 -57 -61 -82 -90 -77 -0 -0 -0 -0 -0 -0 -0 -0 -0 -0 -83 -166 -215 -205 -190 -141 -133 -184 -122 -110 -105 -171 -118 -107 -41 -35 -43 -69 -71 -76 -24 -13 -24 -56 -116 -77 -26 -338
-149 -68 -81 -101 -51 -25 -71 -57 -72 -151 -25 -0 -0 -0 -0 -0 -0 -0 -0 -0 -0 -41 -176 -78 -210 -170 -132 -144 -242 -126 -123 -109 -112 -135 -160 -33 -50 -49 -43 -59 -51 -17 -17 -29 -68 -55 -44 -19 -30
-183 -141 -70 -35 -15 -78 -38 -18 -73 -134 -68 -10 -0 -0 -0 -0 -0 -0 -0 -0 -0 -9 -0 -0 -0 -13 -143 -98 -5 -84 -87 -85 -84 -115 -116 -23 -34 -40 -50 -48 -33 -22 -64 -27 -51 -26 -31 -35 -79
-151 -29 -33 -11 -199 -82 -79 -1 -84 -188 -168 -99 -31 -28 -0 -0 -0 -0 -0 -0 -0 -0 -0 -0 -251 -206 -192 -126 -0 -43 -50 -56 -59 -108 -106 -84 -31 -62 -48 -82 -61 -48 -30 -15 -22 -21 -70 -77 -137
-32 -1 -26 -49 -5 -97 -96 -114 -174 -239 -195 -150 -71 -51 -53 -0 -0 -0 -0 -0 -0 -0 -0 -0 -196 -139 -136 -90 -121 -104 -90 -57 -30 -131 -90 -0 -39 -50 -47 -55 -15 -34 -16 -59 -22 -14 -52 -55 -126
-67 -99 -92 -18 -62 -140 -119 -219 -102 -395 -291 -78 -70 -26 -52 -106 -0 -84 -65 -68 -80 -89 -0 -193 -0 -189 -101 -66 -85 -129 -99 -59 -38 -71 -67 -49 -61 -122 -21 -42 -45 -15 -98 -97 -18 -110 -29 -32 -48
-239 -163 -192 -142 -27 -42 -41 -30 -43 -368 -104 -353 -67 -96 -189 -264 -125 -100 -88 -101 -76 -71 -96 -270 -0 -0 -209 -155 -102 -78 -0 -0 -0 -0 -79 -51 -0 -146 -106 -36 -23 -16 -15 -50 -9 -15 -24 -58 -21
-180 -147 -130 -100 -108 -29 -188 -184 -266 -285 -159 -30 -21 -81 -62 -38 -126 -48 -77 -78 -92 -67 -57 -68 -44 -152 -284 -271 -213 -174 -0 -0 -57 -6 -96 -99 -112 -143 -117 -61 -42 -21 -10 -7 -54 -75 -82 -48 -38
-56 -80 -77 -14 -101 -52 -37 -56 -263 -277 -127 -69 -27 -37 -76 -42 -26 -36 -19 -79 -99 -73 -66 -52 -48 -58 -224 -297 -226 -224 -214 -0 -0 -0 -85 -148 -108 -123 -94 -59 -32 -38 -17 -22 -30 -115 -55 -64 -69
-73 -109 -62 -32 -45 -33 -61 -12 -177 -266 -214 -182 -51 -45 -52 -72 -81 -59 -57 -43 -45 -77 -58 -60 -26 -14 -29 -93 -264 -271 -247 -219 -0 -0 -79 -105 -107 -142 -82 -44 -31 -17 -26 -39 -41 -141 -75 -47 -22
-5 -2 -2 -34 -38 -20 -74 -4 -38 -218 -191 -67 -53 -47 -50 -78 -66 -93 -44 -41 -58 -36 -42 -26 -41 -44 -27 -29 -27 -301 -0 -0 -258 -142 -87 -108 -112 -91 -56 -17 -10 -21 -24 -31 -127 -98 -57 -33 -29
-10 -0 -66 -59 -54 -41 -0 -28 -0 -49 -51 -39 -90 -53 -85 -88 -77 -77 -20 -18 -46 -41 -27 -22 -49 -39 -36 -69 -30 -80 -73 -163 -190 -44 -42 -52 -40 -26 -59 -75 -65 -132 -68 -129 -93 -56 -65 -46 -9
-12 -0 -52 -32 -48 -32 -59 -52 -76 -96 -0 -38 -0 -72 -161 -128 -120 -80 -44 -27 -30 -29 -25 -49 -26 -37 -27 -59 -59 -61 -53 -246 -133 -74 -104 -23 -20 -67 -62 -53 -57 -54 -43 -61 -59 -38 -60 -37 -37
-9 -33 -0 -0 -0 -0 -43 -43 -10 -81 -0 -0 -0 -334 -213 -130 -111 -78 -53 -43 -370 -465 -120 -89 -38 -31 -28 -82 -79 -63 -253 -171 -95 -89 -141 -92 -64 -92 -102 -89 -67 -40 -49 -12 -26 -17 -18 -21 -28
-2 -0 -0 -0 -0 -0 -0 -0 -0 -0 -0 -0 -0 -220 -167 -148 -151 -123 -88 -82 -257 -322 -323 -110 -46 -14 -31 -97 -101 -52 -52 -36 -92 -86 -179 -96 -14 -7 -89 -42 -93 -126 -44 -1 -13 -30 -29 -25 -12
-0 -0 -0 -0 -0 -0 -0 -0 -0 -0 -0 -0 -102 -154 -126 -167 -162 -135 -122 -87 -97 -167 -155 -88 -105 -68 -9 -89 -31 -21 -0 -10 -29 -44 -60 -114 -41 -36 -16 -9 -70 -107 -60 -17 -8 -25 -26 -31 -31
-0 -3 -0 -0 -0 -0 -0 -0 -0 -0 -0 -0 -122 -120 -114 -181 -168 -125 -107 -79 -50 -25 -10 -2 -3 -62 -109 -51 -23 -41 -25 -42 -36 -20 -29 -42 -20 -260 -250 -213 -96 -116 -81 -24 -69 -36 -15 -34 -67
-0 -0 -0 -0 -0 -0 -0 -0 -0 -0 -0 -0 -240 -205 -219 -220 -213 -176 -194 -167 -113 -68 -37 -19 -40 -33 -53 -72 -60 -33 -35 -25 -0 -0 -20 -2 -87 -155 -331 -213 -153 -73 -3 -2 -17 -36 -26 -0 -18
Wind_Speed
15 19 nan nan nan 5 14 9 9 7 9 5 4 2 4 16 13 nan 3 3 7 1 2 3 6 8 10 7 4 4 7 7 6 4 2 2 3 4 5 6 8 7 6 6 5 6 7 6 4
nan 15 nan nan 15 nan 14 4 13 8 7 10 4 5 12 7 11 6 6 3 6 3 2 3 5 8 8 5 3 4 5 7 7 5 2 2 4 5 6 6 5 7 8 4 4 7 6 3 5
8 12 9 nan 24 nan 19 12 17 9 9 10 11 12 13 11 5 10 4 6 8 2 3 4 7 9 9 6 5 5 5 5 7 5 5 6 6 7 7 8 6 5 6 7 5 5 5 4 6
3 21 11 14 24 12 26 18 15 8 8 12 8 11 13 10 7 9 6 5 5 3 2 6 8 9 9 7 6 6 6 6 6 6 6 7 7 10 7 9 7 5 6 9 7 7 7 7 8
6 6 9 18 26 nan 19 20 16 12 11 11 14 13 16 15 5 7 3 4 3 3 4 5 9 9 9 8 8 8 8 7 7 7 9 10 9 9 10 11 10 6 6 9 10 9 7 6 4
11 4 12 12 nan nan nan 22 18 14 4 6 11 18 18 2 10 8 8 8 5 7 6 8 11 11 11 10 9 8 6 7 8 9 10 11 11 11 14 12 12 9 8 10 11 11 7 5 2
nan nan 19 9 14 nan nan 27 19 19 13 9 8 16 17 5 7 9 6 6 7 5 4 4 6 9 12 12 10 8 8 9 9 9 10 13 13 14 15 14 14 12 12 12 13 11 8 5 4
nan nan 13 18 12 nan 15 nan nan 19 18 8 8 nan nan 8 7 8 7 6 6 5 4 4 5 3 3 5 9 7 8 7 10 11 13 14 14 15 15 14 12 12 12 11 10 7 7 11 10
4 11 18 6 11 nan nan nan nan nan 18 nan nan nan nan nan 8 7 4 5 5 5 5 5 5 6 4 4 6 7 7 8 11 11 14 13 7 10 15 12 16 13 13 13 8 9 17 14 14
12 14 19 17 nan nan nan nan 17 nan nan nan nan nan nan nan 8 8 10 9 nan nan 11 9 7 8 6 6 4 3 4 2 3 4 6 7 8 7 11 12 17 15 12 12 11 12 20 13 nan
16 22 25 22 nan nan nan nan nan nan nan nan nan nan nan nan nan 8 10 nan nan nan 11 12 10 9 9 7 2 1 2 3 3 6 9 10 9 6 7 7 9 7 8 1 5 7 8 9 nan
11 31 30 23 21 nan nan nan nan nan nan nan nan nan nan nan nan nan nan nan nan nan 15 13 12 11 10 4 4 2 3 5 5 5 8 10 9 7 8 9 8 5 3 5 9 8 10 10 nan
19 29 22 nan 10 nan 14 10 nan nan nan nan nan nan nan nan nan nan nan nan nan nan nan nan nan nan 8 6 nan 4 4 6 8 9 10 13 13 11 11 13 6 6 6 6 8 13 16 11 nan
23 16 22 nan nan 5 23 12 19 nan nan nan nan nan nan nan nan nan nan nan nan nan nan nan nan nan 8 8 nan 6 6 7 11 11 11 15 15 13 13 13 12 6 9 11 9 14 14 14 13
nan nan nan nan 8 3 14 4 13 2 nan nan nan nan nan nan nan nan nan nan nan nan nan nan nan nan nan 14 nan 8 8 12 12 nan 12 15 18 17 16 16 15 14 11 12 13 15 14 12 10
nan nan nan nan nan 3 22 nan 8 8 nan 11 nan nan nan nan nan nan nan nan nan nan nan nan nan nan nan 14 nan nan 13 14 13 nan 17 15 19 18 17 15 14 12 15 14 19 21 18 14 13
nan nan nan nan nan 3 14 13 13 19 16 15 15 18 25 nan nan nan nan nan nan nan nan nan nan 23 20 18 nan 16 18 19 19 nan 19 nan 18 20 22 17 15 14 16 17 21 22 22 20 16
nan nan nan nan nan 11 16 17 nan nan 11 15 16 15 16 nan nan nan nan nan nan nan nan nan nan nan 22 nan nan nan 19 nan nan 20 19 nan nan 21 21 21 21 22 21 22 23 26 22 21 19
10 nan 16 25 27 14 19 23 26 25 nan nan 15 14 18 14 nan nan nan nan 28 25 nan nan nan nan nan nan nan nan nan nan nan nan 21 19 nan 23 23 23 24 24 24 25 26 27 26 21 18
11 6 17 nan 18 13 21 25 31 25 nan 25 18 24 26 19 16 17 18 24 23 36 32 nan nan nan nan nan nan nan nan nan nan nan nan 23 22 26 28 29 25 27 30 30 27 25 26 27 25
10 9 nan nan 9 5 nan nan 25 25 29 26 32 25 25 27 28 21 26 24 25 28 38 31 28 33 nan nan nan nan nan nan nan nan nan 26 28 30 32 35 32 32 32 31 30 32 25 27 25
14 nan nan 11 5 nan 19 nan 23 26 29 32 34 31 32 32 29 22 24 22 27 30 31 25 24 21 28 29 nan nan nan nan nan nan 29 28 28 34 40 40 39 35 35 35 nan 31 32 32 30
nan nan nan nan nan nan nan nan nan nan 21 30 28 33 35 34 30 31 31 30 31 30 23 27 23 25 36 36 36 nan nan nan nan 26 30 30 33 41 38 38 43 29 46 34 30 35 36 37 37
nan nan nan nan nan nan nan nan nan nan nan nan 26 34 34 29 31 35 34 26 22 28 26 29 29 24 34 40 35 nan nan nan 35 30 33 38 35 34 41 39 38 50 49 38 45 46 46 38 38
nan nan nan nan nan nan nan 14 nan nan nan nan nan nan 21 23 30 31 40 38 35 37 38 33 30 26 35 39 38 43 42 40 28 26 31 31 36 36 40 40 42 38 54 56 50 49 43 44 36
nan nan nan nan nan nan nan nan nan nan nan nan nan nan 21 23 23 30 37 40 43 47 47 48 43 39 40 39 40 42 42 39 30 29 33 30 28 32 36 35 40 40 33 38 34 36 29 31 43
nan nan nan nan nan nan nan nan nan nan nan nan nan 28 29 24 23 30 34 39 40 46 47 44 47 47 47 45 43 44 42 41 35 30 36 25 19 25 19 nan 19 nan nan nan nan nan nan nan nan
nan nan nan nan nan nan nan nan nan nan nan nan nan 36 32 28 30 32 35 39 38 40 43 43 45 47 48 47 47 45 43 34 36 35 nan 26 13 18 19 nan nan nan nan nan nan nan nan nan nan
nan nan nan nan nan nan nan nan nan nan nan nan nan 34 35 36 37 39 41 42 47 50 55 56 54 50 49 52 48 45 42 38 35 35 46 24 14 nan nan nan nan nan nan nan nan nan nan nan nan
nan nan nan nan nan nan nan nan nan nan nan nan 37 36 36 40 44 49 50 49 51 56 58 61 62 56 50 51 48 42 39 39 41 45 nan 18 nan nan nan nan nan nan nan nan nan nan nan nan nan
Wind_Direction
40 79 nan nan nan 114 47 61 11 310 339 24 355 315 148 171 170 nan 172 52 313 334 67 31 340 337 333 336 355 317 340 335 342 341 321 351 305 326 1 10 15 29 45 42 29 33 47 47 86
nan 75 nan nan 54 nan 38 103 307 335 347 358 8 86 139 156 186 194 216 310 296 256 120 65 337 333 333 4 338 325 326 328 343 343 20 338 323 333 325 331 359 21 23 2 27 28 45 67 95
84 69 104 nan 31 nan 20 28 332 10 23 68 119 136 143 158 236 76 223 265 241 203 129 41 340 327 344 359 344 333 326 350 11 10 1 338 342 345 336 333 332 2 354 353 8 20 22 4 35
175 119 88 63 43 62 28 16 12 41 134 134 105 152 152 161 131 121 334 329 198 25 44 354 337 332 339 353 350 342 357 17 3 359 356 338 342 356 343 346 333 321 345 352 4 6 14 9 44
145 60 52 58 55 nan 18 18 4 76 120 144 137 127 141 152 280 348 7 18 17 27 38 355 335 333 340 348 351 0 11 353 342 350 346 335 354 6 1 350 346 324 349 358 15 13 24 30 35
133 118 75 71 nan nan nan 32 17 15 39 151 148 141 135 300 325 5 3 5 9 3 9 354 334 331 335 332 336 353 354 334 343 343 336 340 357 4 358 8 7 16 9 14 21 13 13 42 87
nan nan 84 77 48 nan nan 6 15 11 21 67 104 142 128 55 16 39 36 12 10 3 8 358 342 344 352 345 353 343 343 349 346 340 338 350 5 4 4 13 8 8 19 22 24 9 352 321 355
nan nan 86 60 44 nan 352 nan nan 10 49 13 27 nan nan 92 351 347 16 345 -0 17 17 26 337 325 346 11 350 352 350 344 337 346 352 355 357 360 4 17 21 15 29 35 26 360 323 332 328
181 68 62 92 59 nan nan nan nan nan 359 nan nan nan nan nan 329 312 333 338 0 32 40 32 348 338 18 34 20 2 347 352 347 350 354 354 7 11 11 18 19 21 20 29 359 347 321 339 321
133 107 77 44 nan nan nan nan 5 nan nan nan nan nan nan nan 30 328 337 352 nan nan 19 20 8 0 13 36 43 358 2 344 318 337 349 342 3 11 17 5 14 25 25 26 11 352 343 343 nan
111 94 89 84 nan nan nan nan nan nan nan nan nan nan nan nan nan 8 12 nan nan nan 23 17 10 9 14 23 38 142 270 303 299 334 348 357 346 348 355 346 360 19 30 334 324 352 332 315 nan
111 86 78 120 30 nan nan nan nan nan nan nan nan nan nan nan nan nan nan nan nan nan 27 17 11 4 13 350 347 328 312 308 288 311 337 326 331 330 346 352 318 318 293 287 313 327 334 341 nan
115 100 133 nan 46 nan 281 268 nan nan nan nan nan nan nan nan nan nan nan nan nan nan nan nan nan nan 1 325 nan 284 301 307 312 313 330 323 326 329 343 3 341 259 277 307 338 325 330 336 nan
76 119 120 nan nan 343 289 324 313 nan nan nan nan nan nan nan nan nan nan nan nan nan nan nan nan nan 339 322 nan 302 294 289 290 303 322 326 312 316 319 331 333 302 280 296 307 315 326 323 319
nan nan nan nan 139 316 309 19 318 223 nan nan nan nan nan nan nan nan nan nan nan nan nan nan nan nan nan 336 nan 304 299 291 289 nan 296 307 304 310 316 312 318 298 301 293 307 312 296 313 304
nan nan nan nan nan 217 235 nan 268 294 nan 13 nan nan nan nan nan nan nan nan nan nan nan nan nan nan nan 314 nan nan 308 288 292 nan 293 303 301 299 298 300 308 288 284 297 297 306 305 308 307
nan nan nan nan nan 14 343 1 24 26 358 24 15 33 29 nan nan nan nan nan nan nan nan nan nan 330 326 316 nan 298 293 290 287 nan 284 nan 294 297 296 292 291 283 282 286 296 296 297 299 301
nan nan nan nan nan 23 37 42 nan nan 56 66 19 22 21 nan nan nan nan nan nan nan nan nan nan nan 328 nan nan nan 288 nan nan 284 287 nan nan 289 288 287 285 285 283 284 283 294 291 295 301
103 nan 78 75 48 19 46 41 54 58 nan nan 19 13 40 38 nan nan nan nan 353 351 nan nan nan nan nan nan nan nan nan nan nan nan 295 288 nan 287 286 274 279 279 280 283 285 283 288 286 289
90 98 93 nan 30 38 47 68 47 60 nan 67 63 53 54 56 48 7 1 344 337 339 343 nan nan nan nan nan nan nan nan nan nan nan nan 301 298 291 287 286 287 289 281 280 283 283 282 277 281
57 61 nan nan 28 92 nan nan 62 52 65 80 76 55 56 47 54 39 29 18 351 0 357 347 341 335 nan nan nan nan nan nan nan nan nan 294 301 300 296 291 286 284 279 287 286 287 284 277 274
81 nan nan 276 13 nan 43 nan 46 44 55 55 58 48 44 28 36 29 38 30 12 359 355 348 344 333 331 317 nan nan nan nan nan nan 298 293 301 295 293 289 284 279 275 277 nan 269 276 275 279
nan nan nan nan nan nan nan nan nan nan 53 49 47 37 35 28 4 16 35 26 16 26 11 357 341 343 347 333 326 nan nan nan nan 282 292 284 285 288 284 279 276 281 271 262 260 261 267 264 264
nan nan nan nan nan nan nan nan nan nan nan nan 8 2 7 28 18 359 7 3 5 353 350 343 340 314 318 330 326 nan nan nan 308 292 296 273 272 277 283 280 280 272 266 267 264 265 262 264 267
nan nan nan nan nan nan nan 345 nan nan nan nan nan nan 351 7 19 5 341 348 350 352 348 347 343 317 309 317 318 312 313 309 304 302 297 292 291 295 294 290 283 281 273 269 264 265 264 255 265
nan nan nan nan nan nan nan nan nan nan nan nan nan nan 351 3 353 339 342 344 342 342 344 345 343 325 317 318 310 304 307 300 284 287 296 288 305 311 303 289 276 276 277 266 275 279 272 285 273
nan nan nan nan nan nan nan nan nan nan nan nan nan 357 352 358 331 333 340 344 338 336 337 337 332 320 319 319 306 301 301 298 284 290 286 277 306 307 308 nan 282 nan nan nan nan nan nan nan nan
nan nan nan nan nan nan nan nan nan nan nan nan nan 329 335 334 332 330 334 332 328 327 326 327 323 319 314 316 307 299 293 277 276 276 nan 265 290 296 310 nan nan nan nan nan nan nan nan nan nan
nan nan nan nan nan nan nan nan nan nan nan nan nan 322 335 332 328 325 324 326 327 328 326 327 324 317 313 317 312 304 293 286 270 263 270 244 270 nan nan nan nan nan nan nan nan nan nan nan nan
nan nan nan nan nan nan nan nan nan nan nan nan 314 326 331 330 327 325 322 321 323 322 322 324 326 320 320 315 312 310 305 288 272 258 nan 231 nan nan nan nan nan nan nan nan nan nan nan nan nan